CAPE
129 199 586 588 552 680 675 688 531 607 575 536 523 716 979 1073 1202 1226 1353 1487 1474 1286 997 883 758 744 898 1252 1015 1076 892 1053 1080 1092 1190 1155 1310 1920 2514 2489 2849 3080 3858 3815 4338 4580 3711 2416 3494 4070 3515 4942 3700 3195 2637 2804 3422 3465 3493 3738 2771 2705 2430 2276 1084 576 431 354 29 160 325 309 1175 954 343 374 397 307 278 661 161 205 190 162 206
139 154 480 568 530 722 743 660 670 562 568 583 622 949 1020 1064 1160 1287 1262 1374 1497 1472 1184 956 820 722 753 878 902 940 923 1125 870 719 830 1102 1765 2035 2548 2343 2547 2851 3538 3466 4495 3898 2783 3617 4524 3322 3445 4383 3858 3926 3506 4692 4150 2665 2950 2928 4649 2672 2903 2079 1027 858 929 537 582 87 343 309 668 439 219 411 347 328 246 261 208 21 132 212 273
161 170 440 547 596 806 726 662 756 502 578 646 695 912 961 1036 1230 1393 1332 1336 1427 1308 1088 1148 954 808 708 682 661 796 876 967 741 863 1164 1699 1740 1914 2277 2067 2456 2323 3321 4126 4235 3707 3975 3519 3478 4713 3727 4515 4746 3483 3760 3536 3514 2756 2507 3319 3128 2810 2617 2139 1704 1322 980 1401 2620 223 391 166 518 320 86 131 51 227 11 171 161 112 140 226 399
176 185 495 543 794 779 709 694 737 618 601 759 712 882 900 1069 1202 1403 1350 1361 1348 1589 1938 1368 1251 785 739 768 767 839 877 1052 747 899 1456 1640 1623 1782 1920 1930 2302 2438 2810 3818 4024 3724 3312 3211 3145 5080 3214 4913 3804 4617 3604 3249 2827 2660 3175 4058 2982 2090 2501 2144 3090 1818 1705 1723 1508 1446 1125 48 185 190 687 598 448 115 6 64 154 80 112 289 364
212 190 442 522 742 755 685 733 769 834 773 860 926 913 988 1166 1228 1363 1373 1337 1474 1931 2098 1256 2553 1898 1817 1111 1325 1362 1064 991 1049 1160 1290 1521 1403 1679 1868 1941 2259 2207 2650 2866 3548 3456 3349 3615 3305 3099 3902 3932 4104 3524 3636 3550 2731 2522 3226 4654 3527 2748 2890 3588 3192 3023 2310 2554 1634 3139 824 382 543 460 811 1302 1552 914 758 235 440 90 228 392 258
154 181 188 512 759 664 880 773 831 1031 906 864 1073 1037 980 1121 1290 1176 1345 1312 1687 1487 1851 1914 2429 1991 1438 1282 1174 997 1144 1046 922 1074 917 1185 1176 1467 1673 1867 1993 2216 2223 2461 2690 3424 3624 2964 2618 3482 3913 3906 4387 4105 3350 3694 3930 2534 3986 3247 3142 3898 3504 3994 3225 2671 2877 2688 1795 2770 1491 360 849 752 787 441 935 2482 2291 1160 543 246 678 825 626
102 149 135 577 695 755 1015 914 1058 1104 933 939 1132 1035 1180 1068 1392 1108 1474 1079 1495 1430 2610 2387 2372 2599 2170 1669 1323 961 1197 1230 1066 844 877 980 859 1688 1524 1644 1759 2219 2160 2312 3096 3534 3242 3217 3138 3976 4476 3753 4555 3198 2693 3134 2091 2819 4028 3944 2958 3598 4197 2913 3263 2391 2277 2109 2261 1840 2130 1376 1037 463 647 2158 501 469 1181 1224 590 121 247 653 726
192 212 86 172 758 771 1006 918 942 1034 899 870 1074 904 1300 1290 1406 1131 1719 1326 1389 1523 2396 2200 2298 2474 2589 2040 1894 1553 1384 1294 1056 831 893 881 1136 1703 1552 1439 1760 1809 2019 1882 2875 3234 3621 3785 4166 4106 3434 2905 3735 3714 2902 2407 2488 4192 4517 3546 3682 4506 2909 2785 2690 2700 2125 1873 3020 2083 2080 1921 855 1087 1502 797 560 327 266 1222 813 1114 794 586 618
384 289 339 152 602 802 956 923 937 1024 837 827 1058 1332 1458 1414 1616 1121 1883 1575 1302 1617 2412 2309 2564 2379 2528 1991 2125 1738 1858 1634 1757 1331 866 1755 1264 1679 1703 1454 1627 1685 2235 2543 2551 3538 4367 3542 3656 3966 4228 3625 4883 3276 2831 2396 2887 3817 3626 2991 3328 2995 2736 4962 3010 1826 2547 1978 1931 1921 2301 2030 1036 1098 1610 2009 1250 825 1021 1281 1155 2073 2030 2206 790
493 483 208 88 599 866 909 906 934 1023 931 821 824 1675 1548 1436 1894 1381 1666 2010 1261 1904 2400 2322 2559 2734 2339 1847 1790 1627 1914 1771 1475 759 1165 1207 1250 1374 1516 1420 1698 1940 2031 2883 3279 3196 3272 3175 3680 3013 3281 3332 3641 2450 2298 2760 3780 3373 3500 3059 3419 3605 3522 2974 2692 3239 3778 3250 2513 2554 2820 2284 1911 1113 1445 2208 2080 917 566 1140 1315 1462 1196 1172 2080
771 443 250 203 526 760 814 892 906 962 819 721 1147 1838 1852 1740 2079 1607 1740 2002 1246 2066 2123 2481 2128 2526 2001 1916 1696 1263 1500 1286 1406 1642 1491 1793 1403 1332 1528 1554 1491 2044 2201 2647 2905 3163 2564 3176 3522 3251 2951 3385 3344 2947 3638 3065 3459 3106 3269 2385 3686 2855 3438 3833 3495 3312 2853 2511 2043 1717 1694 1777 1216 1270 1629 1775 1594 1465 679 1131 1433 1282 1248 1062 1103
639 670 974 490 52 430 724 969 921 888 851 710 1210 1909 1917 1879 2195 1760 1669 1997 1346 2204 1920 2595 1970 2397 1732 2165 1400 1210 1441 1250 1200 2014 1646 1706 1528 2255 1800 1823 1376 1562 1965 2280 2307 2680 2800 2878 3210 2826 2774 3319 2756 2905 2669 2510 2710 2989 3193 3137 3177 2996 2844 3143 2685 2588 2456 2325 2139 1660 1610 1423 909 1167 834 1065 1508 1532 566 1107 1475 1440 1166 1441 1282
1456 1369 1074 533 273 175 437 836 885 996 890 823 897 1784 1964 1937 2176 2030 1544 2424 1638 2354 1868 2393 2106 2051 1653 2082 1181 1232 1532 1074 1292 1867 1859 1768 2027 2224 1957 1973 2056 1551 1572 2136 2114 2314 2247 2481 2550 2452 2559 3014 3203 2606 3858 3358 2702 2822 2380 3769 3450 3135 3379 3075 2691 2692 3027 2945 2409 2218 1944 1432 1366 1058 963 1029 1787 1805 1048 471 761 1229 826 803 1133
1337 1491 1054 786 1022 306 328 738 712 844 918 968 1264 1758 2138 2105 2204 2347 1535 2568 1969 2264 1875 2177 1979 1962 1833 1766 1618 1246 1985 876 1490 1589 1772 1780 2022 2124 2134 2003 1701 1992 1727 1737 1766 1925 2151 2248 2388 2209 2998 2650 3424 3364 3430 3531 3681 3548 3916 3767 3098 3552 3285 3349 3858 3282 2754 2422 1980 1345 1396 1549 1420 1468 1368 950 735 622 810 636 844 1507 1279 1232 1269
1221 1260 1322 1481 1334 792 533 523 683 727 845 1136 1219 1585 2085 2107 2363 2528 1914 2493 2272 2039 2122 1997 1868 1963 2027 1749 1888 1618 1505 1284 1274 1508 1500 1836 1903 1862 1938 1956 1779 1464 1565 1139 1348 1274 1682 1859 1927 2106 2900 2851 3423 3659 3541 3279 3604 2994 2967 3021 3921 3558 3524 3181 3126 3025 2842 2550 1976 1684 1822 1617 1732 1629 1324 1168 934 637 492 736 908 960 1417 1379 1633
2306 1918 1870 1420 1132 1317 637 678 700 837 889 1081 1421 1486 1787 2152 2385 2580 2242 2448 2715 2100 2204 2042 1776 2035 2093 1750 1983 2257 2051 1955 1918 1712 1422 1652 1694 1659 1594 1340 1495 1211 1024 1359 939 1217 1335 1650 1971 1830 2136 2695 3172 3148 3208 3270 3041 3306 3257 2935 2610 3039 2696 3068 2920 2766 2438 1925 1832 1756 1658 1585 1399 1384 1734 1591 1076 843 701 817 948 1347 1068 1187 2256
2379 2223 1888 1555 1477 1425 929 512 380 669 803 878 1371 1774 2010 2245 2264 2622 2566 2515 2826 2717 2066 2142 1758 2137 2055 2010 2155 2153 2159 1787 1955 1932 2050 1454 1539 1461 1407 1266 1160 1092 896 1382 1035 741 1344 1489 1735 1656 2108 2022 2625 3050 3152 3208 3193 2665 3131 3301 2978 2722 2818 2758 2654 2654 2668 2783 2486 2125 1693 1877 1935 1978 1914 1651 1345 2069 977 1063 1390 1881 1553 1387 1672
2264 2605 2522 2233 1693 890 969 943 697 943 692 1063 1617 1769 2288 2480 2102 2671 2654 2542 2679 2863 2557 2200 2094 1883 2156 2234 2243 2118 2079 1857 1688 1797 1718 1518 1377 1361 1147 874 998 1473 965 898 1170 516 601 3341 1571 1481 1633 2124 2120 2372 2655 2670 3018 3236 2931 3100 3130 3066 2815 3258 3527 3233 3135 2769 2615 2341 1891 1992 1866 1562 1605 1415 1599 1644 1535 1237 1542 2160 1436 1522 1866
1930 2378 2249 1990 1553 1505 1252 1715 1950 996 656 1230 1548 1683 1990 2261 1941 1794 2302 2443 2595 2831 2612 2286 2372 1936 2126 2196 2260 2254 1887 1790 1654 1538 1370 1111 956 1181 971 836 632 599 1095 794 655 706 409 841 1338 1606 1655 1784 1940 2148 2310 2325 2466 2828 3013 3160 3415 3248 3197 3178 3510 3771 3248 2920 2578 2231 1999 1596 1661 1592 2162 1621 1522 1756 1484 1528 1250 1835 2449 1540 2191
1757 1793 1413 1578 1839 2204 2312 2229 2300 1353 633 911 1094 1417 1710 1971 1492 1444 1904 2091 2261 2231 2421 2421 2286 2084 1945 2102 2114 2136 1939 1822 1487 1403 1284 1075 902 1032 734 573 650 503 388 628 834 808 510 638 915 1146 1472 1727 1541 1696 2233 2198 2417 2526 2597 2616 2671 2925 3106 3153 3123 3139 2957 2729 2460 2268 2189 1907 1933 2074 2150 2354 2248 1963 1792 1481 1285 2191 2220 2037 2121
1325 1523 1364 1708 2027 1832 1736 2042 2141 2035 1342 1254 981 669 957 869 1054 1534 1589 2172 1976 1715 1947 1771 1772 2092 1953 1868 2009 2030 1852 2074 1639 1267 1082 906 729 715 758 686 766 496 416 296 784 946 548 689 685 1089 1010 1022 1521 1368 1551 2273 2269 2432 2469 2460 2442 2638 2880 2965 3056 2953 2824 2890 3325 3172 2807 2497 2787 2572 2313 2320 2132 1862 1473 1318 1244 1656 2570 2817 2970
1335 1318 1384 1423 1318 1317 1568 1815 2066 1671 2226 2236 1641 795 786 764 845 1188 1290 2170 1667 1414 1474 1600 1459 1841 1888 1918 1892 2083 2092 2069 2036 1932 1442 1058 778 536 506 605 596 584 493 497 297 513 1048 1089 921 958 1005 910 983 1260 1407 1432 2179 2298 2391 2623 2682 2516 2882 3110 3182 2986 3122 3571 3425 2995 2550 2772 2636 2751 2536 2280 2179 2172 1868 1402 1068 1358 1470 2544 3043
1245 1176 1094 1029 888 1101 1354 1780 1933 2017 2204 2130 1931 1829 2266 2236 1628 1320 1135 1681 1605 1340 1182 1387 1499 1427 1637 1377 1626 1984 1887 1832 1750 1590 1338 1142 793 765 592 445 592 470 475 415 434 314 270 484 1220 1279 1191 1245 1067 1078 1386 1425 1744 2135 2280 2363 2310 2209 2143 3139 3322 3441 3669 3653 3386 3054 2846 2635 2322 2032 1934 1978 2146 2023 1433 1630 1692 1905 1721 1666 2383
1007 1005 1062 1050 881 700 517 1370 1669 1923 1841 1530 1429 1648 1922 1978 2154 1336 813 945 1646 1894 1323 1631 1294 1486 1584 1301 1127 1323 1487 1352 1450 1270 1184 1147 920 789 605 591 582 751 492 357 474 348 370 330 244 826 1567 1419 1241 1413 1228 1295 1413 1911 2275 2280 2160 2053 2294 2371 2900 3328 3440 3383 3207 2880 2466 2359 2298 2183 2312 2330 1950 1720 1349 1728 1664 2073 1827 1826 2334
918 1002 986 939 1179 806 1410 1792 1304 921 1115 1390 1404 1271 871 1224 2178 2151 2291 2518 1955 1736 2052 1500 1211 1275 1232 1298 1152 1336 1188 1204 1234 1047 875 907 873 736 706 904 841 596 722 578 739 497 695 657 569 488 596 1323 1595 1788 1580 1136 970 1464 2215 2290 2184 2130 2114 2213 2405 2326 3051 2929 2902 2715 2765 2612 2620 2403 2350 2222 1894 1696 1595 1452 1496 1727 2252 2345 2732
1001 1000 994 998 840 882 883 896 811 909 963 1179 1381 1329 1160 944 1519 1870 2670 2280 3124 2002 1466 1479 1984 1753 1420 2009 2223 1688 1387 1471 1533 1372 971 809 779 782 715 712 1356 784 627 597 529 744 835 1188 911 945 814 849 846 1312 1499 1349 1162 1025 1047 1544 2042 2254 2299 2234 2206 2281 2669 2701 2413 2305 1918 2588 2482 2116 2170 2432 1903 2237 1827 1884 1579 1634 2437 2877 2089
830 826 920 899 878 811 775 767 638 502 728 857 694 985 1176 1146 1681 2007 2348 2945 3019 2326 2066 3179 2772 2239 1773 2094 2039 1791 1588 1478 1253 1212 1114 1248 1716 1182 1242 754 887 1098 888 1120 1103 863 709 691 983 1152 1196 1084 977 1059 1329 1712 1616 1387 1384 1561 1591 1642 1948 2230 2405 2428 2021 1882 1896 1710 2070 2426 2182 2173 2420 2411 2507 2005 2401 2160 1788 1757 2728 2083 1750
846 783 742 786 800 697 716 623 781 887 700 609 680 811 1070 1180 1411 1738 2012 2282 2493 2432 1766 3020 3224 2617 2125 1994 2212 1895 1659 1154 1554 1561 1557 1519 1502 1912 1621 1283 1440 1147 1087 1172 1131 958 667 691 1113 820 880 1558 1942 1819 1354 1670 1992 1849 1659 1611 1685 1565 1382 1892 2058 1785 1620 1731 1546 1606 1869 2229 2427 2219 2632 2404 2044 1688 1851 2755 2268 2491 2803 2675 2306
469 593 619 563 657 651 578 615 512 646 696 804 796 1079 1014 706 1078 1266 1367 1921 2430 2464 2450 2592 3033 3073 3072 2794 2701 2713 2380 2224 2346 1694 1559 1406 1391 1856 1841 1533 1176 912 1191 1342 1304 1123 947 658 668 798 678 985 1631 1947 2279 2225 2074 2289 2453 1958 1615 1287 1603 1407 1308 1563 1401 1291 1596 1547 1489 1854 2927 3956 3642 3426 2566 2757 2850 3018 3427 2844 2398 2193 2814
540 454 378 432 494 542 534 455 485 551 528 760 852 1044 1151 836 767 1508 1225 1562 1603 1927 2000 1889 2356 2415 2916 2698 2615 2539 2444 2401 2370 2694 2305 1995 1455 1460 1931 1744 1975 1696 1620 1853 1714 1204 1301 1018 694 517 582 827 1507 2404 2068 1647 2017 2594 2051 1846 1678 1688 1826 2142 2211 1553 1420 1476 1695 1394 1981 3158 2797 3196 3131 3189 3587 3647 3488 2762 2934 2596 2343 2054 1930
441 351 353 338 468 441 496 499 522 529 531 614 833 966 996 962 980 1088 1602 1582 1538 1467 1542 1260 1540 1812 2183 2569 2525 2390 2290 2099 2007 1982 2134 2107 2386 2309 2315 1957 1374 1350 1649 1900 2037 1855 1499 1100 628 580 547 541 1214 2004 1867 1777 1725 1684 2777 1955 1624 2183 1697 1810 2343 1781 1726 1593 1614 1798 2036 2500 3038 3370 3461 3575 3877 3498 3346 3288 3362 3273 2726 1587 1484
259 322 376 420 437 459 456 503 577 643 607 668 872 1049 1024 899 890 891 1090 1370 1388 992 842 877 1420 1642 1472 1457 1702 1901 1814 1636 1694 1686 1625 1541 1451 1516 1818 2134 2160 1842 2081 2135 1912 1804 2003 1764 1390 1145 1066 1244 1399 2315 1590 1547 1436 1410 2142 2716 2019 1764 1688 2319 1922 1594 1830 1899 1854 2368 2351 2244 1742 1496 1514 2887 3522 3413 2931 2889 2821 2830 3121 3251 3311
218 205 337 367 432 439 343 400 474 529 597 709 906 906 960 962 928 952 920 993 980 1023 686 766 1017 1235 1338 1028 1210 1350 1528 1485 1205 1165 1286 1291 1474 1356 1406 1682 1938 1969 1695 1609 1563 1685 1993 1922 2128 1945 1934 1335 1494 1457 1246 1030 861 746 1037 3177 2065 1771 1604 1921 1587 1450 1255 1587 1859 1946 2548 2437 2134 2128 2316 1776 1975 2520 2983 2749 2695 2534 2635 2647 2288
134 214 326 320 349 323 311 345 462 516 717 819 876 816 765 752 748 784 912 830 892 853 927 847 681 678 776 526 1125 1395 1372 1211 1058 1095 1239 1353 1019 1184 1390 1427 1540 1623 1603 1699 1777 1688 1716 1868 1889 2183 2142 1715 1821 1665 1377 1029 747 723 728 1142 1927 1630 1579 1965 1692 1465 1459 1404 1620 2190 2212 2826 2084 1951 1948 2049 2322 2548 2312 2583 2899 2946 2870 3446 3547
197 228 214 256 395 422 287 338 438 511 542 517 500 548 549 568 572 702 741 808 777 798 845 842 801 877 561 872 817 848 840 1024 874 899 930 858 1008 1211 1193 1269 1390 1545 1566 1519 1518 1590 1547 1688 2011 1683 1829 1998 1919 1629 1424 1188 906 794 842 915 1362 1680 1464 1588 1812 1750 1661 1578 1724 2391 2610 2204 2051 2159 2158 2473 2850 3135 3002 2693 2688 2597 2558 2511 2431
86 195 225 329 200 360 324 319 379 465 435 478 529 475 511 452 444 538 584 623 659 627 658 619 662 752 645 582 702 828 953 811 763 802 790 886 985 1011 996 1018 1111 1208 1233 1227 1279 1259 1361 1533 1462 1517 1516 1564 1524 1591 1540 1332 1134 930 783 854 1232 1965 2218 2315 2260 2243 2164 2274 2446 2465 2391 2146 1862 1750 1883 1978 2133 2433 2612 2515 2431 2333 2288 2428 2403
34 139 252 273 335 217 303 311 355 366 362 370 390 351 363 380 409 493 477 507 504 545 602 629 640 622 603 592 581 582 586 641 656 719 782 907 921 1001 1017 1008 973 886 856 928 1067 1150 1145 1105 1214 1122 1236 1008 899 805 1051 1178 1081 901 864 876 1453 2027 2226 2228 2401 2362 2354 2215 2265 2278 2092 1747 1506 1440 1558 1648 1456 1552 1736 1802 1758 1764 1718 1630 1567
21 48 346 327 219 172 227 256 335 345 345 382 422 371 357 322 347 397 431 430 446 506 532 585 565 586 527 571 566 490 452 467 488 457 525 533 523 497 480 571 619 626 601 609 590 594 536 475 717 978 774 900 988 832 767 883 946 900 850 1109 1909 2313 1856 1957 1985 1720 1819 1846 1798 1644 1488 1360 1402 1449 1475 1415 1288 1216 1304 1501 1532 1435 1308 1145 1175
0 0 13 79 333 134 142 84 199 208 332 337 333 323 255 285 417 438 446 442 378 292 299 310 261 294 270 274 216 168 136 107 90 127 155 221 284 373 371 41 1 0 1 0 3 27 50 8 329 499 625 796 887 900 869 789 856 963 984 980 1324 1441 1494 1417 1391 1533 1236 1225 1218 1344 1339 1274 1103 995 933 874 745 834 987 1065 1008 917 923 930 802
0 0 56 5 136 266 201 253 292 288 353 375 340 298 339 367 433 356 396 422 233 156 276 237 220 117 138 226 190 168 151 110 103 100 80 115 191 210 188 25 1 1 1 0 5 89 166 44 3 13 237 285 408 631 684 672 815 724 858 934 785 947 1087 1106 1038 1045 1044 973 896 831 804 830 853 830 818 828 791 774 783 775 736 654 546 524 370
9 0 0 0 119 20 45 30 61 271 314 329 309 328 348 362 350 312 324 342 358 233 245 89 178 158 158 133 111 110 100 49 27 32 70 97 113 134 143 44 8 2 0 0 0 0 0 1 1 0 0 20 79 199 326 321 341 570 714 740 520 634 636 661 762 824 735 753 687 716 607 600 569 555 563 613 640 639 555 412 286 215 159 104 0
0 0 0 0 0 2 22 9 11 153 214 244 282 334 348 359 327 312 307 286 300 285 247 294 308 240 112 62 90 99 76 50 41 25 16 77 108 80 38 126 102 77 0 0 2 1 0 0 0 0 0 0 0 0 1 0 0 0 0 83 308 434 427 463 445 475 450 532 530 425 250 325 358 348 339 336 289 229 156 97 78 63 48 5 0
0 0 0 0 0 0 0 12 12 15 26 37 51 99 212 257 267 275 305 317 299 256 222 218 211 169 152 7 4 4 10 14 16 10 4 4 6 13 11 2 0 0 0 0 0 0 0 0 0 0 0 0 0 0 0 1 0 0 0 0 21 34 31 36 24 60 118 165 217 227 226 150 126 181 180 185 174 157 141 130 114 88 78 65 19
0 0 0 0 0 0 0 0 17 54 71 91 60 72 93 36 8 23 101 122 131 140 119 177 188 162 175 142 49 0 0 0 0 0 0 0 0 0 0 3 1 0 0 0 0 0 0 0 0 0 0 0 0 0 0 0 1 0 0 0 0 3 33 76 91 102 117 131 128 139 161 148 125 136 139 132 137 153 133 94 64 51 40 18 7
0 0 0 0 0 0 0 0 0 9 53 93 147 178 169 98 78 50 9 9 29 18 0 0 0 0 68 165 148 125 0 0 0 0 0 0 0 0 0 0 0 0 0 0 0 0 0 0 0 0 0 0 0 0 0 0 0 0 0 0 0 0 0 0 0 0 0 24 38 84 92 85 86 96 84 78 88 93 90 80 70 56 30 14 14
0 0 0 0 0 0 0 0 0 0 1 75 41 91 279 160 85 125 115 107 8 8 66 0 0 0 0 0 0 0 0 0 0 0 0 0 0 0 0 0 0 0 0 0 0 0 0 0 0 0 0 0 0 0 0 0 0 0 0 0 0 0 0 0 0 0 0 0 0 21 30 46 58 65 67 63 67 77 71 62 48 38 35 34 32
0 0 0 0 0 0 0 0 0 0 0 0 17 55 108 117 102 29 41 61 214 59 3 0 0 0 0 0 0 0 0 0 0 0 0 0 0 0 0 0 0 0 0 0 0 0 0 0 0 0 0 0 0 0 0 0 0 0 0 0 0 0 0 0 0 0 0 0 0 16 26 36 84 48 20 27 34 33 32 22 16 24 27 10 16
70 180 76 13 0 0 0 0 0 0 0 0 0 0 20 68 91 102 99 77 127 1 0 0 0 0 0 0 0 0 0 0 0 0 0 0 0 0 0 0 0 0 0 0 0 0 0 0 0 0 0 0 0 0 0 0 0 0 0 0 0 0 0 0 0 0 0 0 0 13 40 91 132 61 26 1 5 0 0 0 0 0 8 1 9
209 435 397 128 101 79 34 15 3 0 0 0 0 0 0 0 12 32 38 76 187 83 0 0 0 0 0 13 0 0 0 0 0 0 0 0 0 0 0 0 0 0 0 0 0 0 0 0 0 0 0 0 0 0 0 0 0 0 0 0 0 0 0 0 0 0 0 0 0 0 0 3 13 17 5 2 0 0 0 0 0 0 0 0 0
235 268 319 399 410 306 251 188 91 48 23 14 14 11 8 8 8 39 49 38 56 24 0 0 0 0 0 0 0 0 0 0 0 0 0 0 0 0 0 0 0 0 0 0 0 0 0 0 0 0 0 0 0 0 0 0 0 0 0 0 0 0 0 0 0 0 0 0 0 0 0 1 2 1 0 1 3 2 0 0 0 1 0 0 0
293 288 356 420 444 453 419 390 224 187 201 208 145 75 50 100 144 62 34 0 0 0 0 0 0 0 40 22 0 0 0 0 0 0 0 0 0 0 0 0 0 0 0 0 0 0 0 0 0 0 0 0 0 0 0 0 0 0 0 0 0 0 0 0 0 0 0 0 0 0 0 0 0 0 0 1 1 1 6 4 2 3 0 0 0
Wind_Speed
6 7 12 9 11 7 7 5 6 7 9 10 10 10 14 14 13 12 11 11 12 11 11 9 8 6 7 9 8 8 10 11 12 11 13 15 14 13 13 13 12 11 10 8 8 11 11 13 14 11 9 7 5 5 6 7 8 6 6 5 6 7 7 8 7 3 2 5 nan 5 5 6 5 8 9 9 9 10 7 9 11 10 9 10 12
6 7 12 12 9 12 8 4 5 7 10 11 9 9 12 14 13 12 10 10 11 11 11 10 8 9 9 10 7 7 10 11 11 11 12 14 11 10 11 11 10 10 9 8 10 11 12 11 12 11 9 7 6 6 6 7 8 7 6 6 5 5 5 5 10 6 1 1 4 nan 6 8 8 8 10 8 6 4 1 1 3 nan 10 12 8
6 6 9 10 10 13 8 6 6 8 9 10 10 10 10 11 11 11 11 11 11 12 12 10 10 9 8 7 9 8 10 11 11 11 11 8 8 8 8 8 8 9 9 8 10 11 12 9 11 11 8 6 6 7 8 8 9 9 8 5 6 6 6 5 7 5 4 4 2 2 5 5 6 5 nan 4 nan 1 nan 5 8 8 7 6 9
6 5 10 10 9 9 8 6 7 8 7 8 10 11 9 9 9 10 11 10 11 12 12 11 13 14 11 9 11 10 10 10 10 10 6 4 6 7 7 6 8 8 9 9 11 11 10 10 10 9 8 6 5 6 7 8 9 10 7 3 3 6 7 7 6 6 5 7 6 5 6 nan 2 6 5 5 6 2 nan nan 4 nan 3 3 5
4 5 8 9 10 9 9 6 8 8 6 7 9 9 7 10 10 10 10 10 9 10 10 10 8 6 10 11 9 3 7 8 7 6 5 5 5 6 6 6 7 8 9 10 11 9 9 9 9 7 7 8 5 6 6 7 9 9 5 3 4 4 7 7 7 7 7 5 4 4 3 3 2 5 5 3 4 3 3 6 3 nan 3 5 6
6 5 6 11 12 9 9 8 8 8 5 5 7 8 10 8 9 8 8 8 7 8 8 7 7 7 9 9 8 7 8 9 8 6 5 6 7 5 5 6 7 9 9 10 9 7 9 7 8 7 7 9 6 5 5 7 9 7 5 3 3 4 4 6 9 8 7 7 4 3 2 2 2 4 1 3 7 4 3 3 4 4 5 5 5
15 7 6 12 10 10 10 8 7 9 5 6 6 6 11 9 7 9 6 6 6 6 5 5 6 7 8 8 9 9 10 10 9 8 6 6 5 4 5 7 9 9 8 7 6 6 6 5 5 6 6 6 6 4 5 7 5 3 3 3 3 5 5 5 7 8 9 5 7 6 4 2 3 1 3 2 2 5 2 2 2 2 4 6 6
17 17 nan 9 11 12 10 10 8 8 6 7 5 7 11 9 7 7 4 6 5 4 3 5 5 7 7 7 8 9 10 10 10 9 8 7 5 5 6 8 8 8 6 5 4 6 4 4 3 5 5 5 5 5 6 4 4 3 3 4 4 5 5 4 5 7 5 7 6 7 5 1 2 2 1 3 4 3 3 2 2 2 3 3 5
8 12 13 8 9 13 12 11 11 9 6 7 6 7 9 9 8 7 4 5 6 4 3 4 5 6 6 6 6 8 8 10 10 9 9 6 6 6 6 6 6 7 6 3 4 4 3 2 4 4 4 5 4 5 5 4 2 2 3 4 4 5 5 4 4 6 5 4 5 5 5 3 3 2 2 1 1 2 2 2 2 3 2 3 5
14 11 13 nan 11 13 13 11 12 10 8 4 7 9 8 8 8 8 5 4 6 5 3 3 3 5 5 5 6 7 6 7 5 8 6 5 6 7 5 4 4 5 5 3 2 2 2 2 3 4 4 4 3 4 4 2 1 0 2 3 3 3 4 4 4 4 2 3 2 2 3 4 4 3 1 2 2 3 3 1 2 1 2 6 4
16 13 11 13 11 12 12 13 13 12 9 7 10 10 8 7 8 8 6 5 6 5 5 3 3 3 4 4 5 5 4 5 4 5 4 3 4 6 4 4 3 3 3 2 2 2 2 2 3 3 3 3 2 3 1 1 2 2 3 2 2 3 3 4 5 5 5 6 5 4 4 3 2 2 2 2 3 3 3 1 2 3 4 3 3
14 13 15 13 nan 7 14 12 14 12 11 11 12 12 9 6 6 7 5 6 6 5 6 3 3 2 3 3 4 4 2 4 3 3 3 3 3 3 3 2 3 3 2 1 3 2 2 3 3 2 3 2 2 1 2 2 2 2 4 1 1 1 2 3 3 5 5 4 4 4 2 2 3 5 5 4 6 4 5 4 4 2 2 4 3
15 16 16 16 13 13 12 14 13 12 12 13 13 12 11 7 6 6 6 6 6 6 5 3 2 1 2 2 4 3 3 4 2 1 1 1 1 1 1 2 2 3 2 3 4 4 3 3 2 1 1 1 0 1 1 2 3 3 4 2 3 2 1 1 1 2 1 1 2 2 2 4 4 4 6 6 6 7 6 4 2 5 5 2 2
17 15 19 18 22 16 16 15 13 11 13 14 15 14 12 9 7 6 5 6 6 5 5 4 3 2 0 1 3 4 4 5 4 3 1 0 0 0 1 1 1 0 1 3 3 3 2 3 2 1 1 1 1 1 2 3 2 3 3 3 2 1 1 2 2 2 3 2 2 3 2 3 2 5 5 8 8 7 4 5 3 3 6 4 3
17 20 20 22 22 26 19 15 13 12 13 16 15 14 14 12 9 7 6 5 7 5 5 4 3 4 2 2 2 3 5 5 5 5 4 2 1 2 2 1 1 1 1 0 2 3 3 3 4 2 1 2 2 2 1 3 3 4 4 5 6 5 3 3 3 3 2 3 3 2 2 2 2 2 3 4 7 6 5 6 8 4 4 5 5
20 22 24 24 26 26 30 19 17 14 15 15 16 15 14 14 12 9 7 6 6 6 5 4 4 5 5 4 4 4 4 5 5 5 5 4 2 1 1 1 2 1 1 1 1 3 4 5 4 3 2 3 3 3 2 2 2 3 3 4 4 5 4 3 3 3 3 3 4 3 4 2 1 2 2 1 6 5 6 6 7 8 7 5 5
15 21 24 28 29 30 29 28 21 16 14 15 16 17 17 17 14 12 10 8 7 7 6 6 5 6 5 5 6 6 5 5 5 5 5 5 4 2 1 1 2 3 1 1 1 2 4 6 5 5 4 4 4 3 3 2 2 2 3 3 3 4 4 4 3 3 3 4 5 5 3 1 1 1 3 3 4 5 6 6 7 9 10 8 5
15 17 22 28 30 30 29 27 28 21 15 20 20 21 25 23 18 15 13 10 9 8 8 7 6 6 7 6 6 6 6 6 6 6 5 5 4 3 3 2 2 3 2 2 3 3 3 6 6 5 5 5 5 5 4 3 3 3 3 3 3 4 4 5 5 5 5 6 5 5 5 5 5 5 4 4 5 5 4 4 5 7 11 10 9
16 14 20 25 26 28 26 31 30 29 25 25 27 26 25 24 24 26 22 15 11 9 9 9 9 8 8 7 6 7 7 7 6 6 6 5 4 3 3 3 1 3 4 2 4 4 4 4 7 5 5 5 6 6 5 4 3 3 3 3 3 4 4 3 3 5 5 5 4 3 4 4 4 6 6 6 6 6 4 3 5 9 9 10 11
19 18 15 17 21 24 28 30 30 29 27 26 27 25 24 24 24 22 21 20 23 16 13 10 10 10 9 10 8 9 9 8 6 7 6 5 4 5 3 4 3 2 2 5 5 5 5 5 5 5 7 6 5 5 6 5 5 4 4 3 2 4 3 3 3 4 4 4 3 4 4 4 5 7 8 8 6 5 4 2 2 7 8 9 11
20 18 14 13 16 23 26 26 28 30 28 24 24 23 22 23 22 22 21 20 21 19 16 19 17 11 11 11 10 10 8 8 9 8 8 6 5 6 5 4 7 4 3 2 6 7 6 6 6 6 6 7 7 6 6 7 5 4 4 4 3 4 4 3 5 4 4 4 6 6 6 6 8 10 10 9 6 5 4 3 3 7 8 9 11
23 22 19 17 16 19 20 22 25 30 31 30 28 26 24 21 20 19 20 19 20 21 18 16 15 17 12 12 12 12 10 9 7 9 10 9 7 5 9 8 6 5 5 4 4 6 9 7 7 8 8 7 8 8 8 9 8 7 5 5 5 4 6 6 7 6 4 6 7 7 6 7 9 10 10 8 8 7 6 8 10 8 7 8 10
23 24 23 23 21 19 17 22 25 29 34 35 34 29 28 27 24 19 19 19 22 21 19 19 18 17 15 15 18 20 19 19 18 19 21 21 20 19 16 12 9 7 7 7 6 6 6 9 9 9 9 9 9 9 10 10 10 9 8 7 7 8 8 10 10 9 9 9 8 7 7 7 8 8 8 7 7 6 9 11 11 9 9 8 8
21 20 23 22 20 19 22 24 27 30 32 34 35 36 35 29 27 23 23 25 23 20 19 20 21 20 19 21 20 19 19 15 11 15 15 15 15 13 14 15 18 19 18 12 9 7 8 8 8 10 11 9 9 11 11 12 12 12 11 10 10 10 12 12 11 11 10 10 9 9 7 7 9 9 9 10 10 11 13 14 12 10 10 8 7
27 27 24 23 23 24 24 25 28 26 27 29 33 37 38 35 33 31 28 25 23 22 24 25 24 22 22 19 19 19 18 16 13 15 18 17 17 17 17 15 14 12 9 9 13 11 8 9 9 9 9 11 11 12 12 11 12 14 15 14 12 12 12 12 13 12 11 10 10 11 11 10 10 10 9 9 10 13 13 13 12 10 10 10 10
25 29 30 30 30 30 30 30 27 24 25 25 27 33 37 36 32 29 29 27 26 25 26 27 25 23 21 18 18 20 21 19 18 18 17 15 16 16 17 18 18 15 14 14 11 15 16 15 9 10 11 11 11 12 14 14 14 14 14 15 16 15 14 12 11 11 11 11 12 12 10 11 13 13 12 12 14 16 15 14 13 11 11 13 14
24 25 29 29 33 32 30 29 26 25 25 24 25 29 33 35 32 31 31 29 28 28 29 27 26 28 25 22 20 20 20 21 22 21 19 18 19 20 20 20 19 19 18 16 12 18 14 12 11 13 10 14 14 13 14 14 15 16 16 16 15 15 15 14 12 12 16 19 18 14 12 13 13 13 14 16 17 16 15 15 14 14 14 16 15
24 22 27 27 30 28 26 27 27 26 26 26 26 25 26 27 25 22 26 31 30 29 29 28 27 27 27 25 23 22 22 23 23 24 21 20 20 20 20 21 20 19 21 24 23 19 17 17 13 10 12 14 18 16 15 16 17 17 16 17 19 20 20 19 23 24 20 17 14 11 9 12 14 15 16 18 18 16 15 15 15 16 16 17 16
29 27 25 26 28 28 26 25 25 26 28 30 25 22 22 19 21 16 20 28 33 35 34 31 28 29 32 31 29 27 27 25 23 23 21 20 21 22 22 20 18 19 22 23 20 23 21 20 21 22 18 15 16 19 21 23 24 22 22 22 22 22 22 20 19 20 20 16 14 14 12 14 18 19 19 18 17 16 17 18 17 19 19 18 18
27 30 29 27 29 32 31 28 26 24 25 26 25 23 22 19 20 19 20 22 26 32 36 39 38 34 34 33 31 29 28 26 26 27 27 24 22 23 25 24 25 26 25 23 21 21 24 25 22 23 26 18 14 23 26 30 27 24 23 22 23 22 22 22 21 21 20 18 16 17 16 15 15 18 17 16 18 17 16 18 18 19 19 20 19
23 27 31 30 30 33 34 32 29 26 25 26 26 27 28 26 22 19 19 20 20 23 26 31 34 30 33 34 32 32 30 29 28 29 30 29 27 27 27 28 27 27 27 26 25 24 22 21 22 23 22 15 13 23 31 30 28 25 24 23 22 23 22 21 22 21 20 17 17 18 20 16 16 19 23 23 20 18 17 18 18 17 18 20 20
25 25 27 30 30 31 32 32 30 30 27 26 27 28 29 26 20 19 21 22 23 25 23 24 23 24 28 33 35 35 33 31 31 32 32 31 29 28 30 31 30 30 28 27 25 22 22 22 22 24 23 21 21 26 29 27 27 27 25 26 26 25 22 21 23 24 23 21 21 23 23 24 26 21 19 21 23 22 22 20 19 19 18 16 19
25 24 24 25 28 30 31 29 28 29 27 26 26 27 28 28 26 25 27 28 28 27 25 23 22 20 23 27 31 34 34 35 36 35 33 33 33 32 31 31 32 33 31 28 26 28 30 31 30 28 27 26 27 29 25 25 26 27 25 26 27 26 24 23 24 25 26 25 25 25 26 31 27 21 22 22 23 24 23 22 23 22 21 20 20
23 24 25 26 27 29 30 29 26 27 26 25 25 27 27 29 29 28 28 28 29 28 25 25 27 26 24 24 26 30 33 34 37 38 37 34 33 33 32 32 32 32 32 31 31 32 32 31 30 30 31 31 31 31 30 31 30 28 27 25 26 27 26 27 27 28 28 28 28 28 29 30 27 25 26 25 23 25 26 27 28 29 29 26 25
24 25 27 27 27 29 31 31 31 30 30 30 28 27 28 29 28 28 27 27 27 27 25 23 25 28 30 30 29 28 28 31 35 39 40 40 38 36 35 35 34 34 34 34 34 34 33 31 32 39 33 26 28 32 31 32 32 32 31 28 27 28 29 29 29 31 31 32 32 32 33 34 32 29 28 28 28 28 30 29 30 31 31 32 32
nan 24 26 28 29 30 31 33 31 31 31 31 29 27 28 27 27 27 24 23 23 24 25 25 26 28 31 33 33 31 29 31 35 40 42 41 39 38 38 37 38 38 37 36 35 35 36 35 38 38 28 29 37 42 37 33 31 32 30 31 30 31 31 33 33 33 35 37 39 39 37 36 33 32 36 36 34 34 35 34 32 32 32 33 33
nan 26 28 29 31 33 31 33 35 33 31 31 29 29 27 24 25 24 24 22 21 22 22 23 25 27 28 31 34 35 33 31 31 36 42 43 41 40 40 39 42 44 44 43 40 40 39 37 37 38 36 40 39 41 39 38 36 35 32 32 32 33 33 35 37 40 42 41 40 41 40 38 36 38 41 40 38 38 38 37 36 35 34 34 33
nan nan 27 29 32 36 36 35 38 37 32 27 26 27 25 25 24 23 24 24 23 22 21 21 22 23 24 26 29 31 34 32 29 34 42 44 42 42 44 44 45 45 46 46 46 47 47 46 42 42 46 43 40 42 44 43 42 41 35 36 37 39 40 41 41 41 42 43 40 41 44 43 44 43 43 43 41 40 41 40 40 39 37 36 36
nan nan nan nan 31 38 37 nan 34 35 34 33 29 27 27 28 26 24 23 22 20 19 19 16 16 18 18 18 19 20 22 25 nan 31 39 45 46 44 45 nan nan nan nan nan nan nan nan nan 50 49 52 47 41 42 45 45 46 47 42 41 42 44 45 44 42 42 44 44 46 50 54 51 49 47 47 44 43 42 42 42 42 41 39 36 38
nan nan nan nan 29 32 33 32 37 36 33 33 33 31 28 27 26 24 25 23 21 19 17 13 12 13 13 11 11 14 15 18 21 nan nan 36 40 40 37 nan nan nan nan nan nan nan 51 nan nan nan 44 44 45 43 42 43 44 49 50 46 46 49 47 45 44 46 47 48 50 51 53 53 52 51 49 48 46 46 47 45 44 42 41 39 44
nan nan nan nan 27 nan nan nan nan 40 39 38 35 33 29 26 24 24 24 23 22 22 21 nan 17 16 14 13 14 16 19 nan nan nan nan nan 29 29 25 nan nan nan nan nan nan nan nan nan nan nan nan nan nan 39 41 43 42 47 48 41 40 46 46 46 44 44 43 45 48 48 51 55 54 52 50 49 49 49 48 48 48 47 46 43 nan
nan nan nan nan nan nan nan nan nan 42 42 42 39 36 32 28 26 26 23 20 21 22 22 21 21 18 16 nan nan nan nan nan nan nan nan nan 28 nan nan 25 22 nan nan nan nan nan nan nan nan nan nan nan nan nan nan nan nan nan nan nan 31 38 40 43 44 42 41 43 43 42 42 46 46 46 48 49 51 51 49 nan nan nan nan nan nan
nan nan nan nan nan nan nan nan nan nan nan nan nan nan 30 28 28 26 23 23 23 20 19 19 20 20 18 nan nan nan nan nan nan nan nan nan nan nan nan nan nan nan nan nan nan nan nan nan nan nan nan nan nan nan nan nan nan nan nan nan nan nan nan nan nan nan 38 38 37 38 40 41 35 35 40 45 51 52 53 52 48 nan nan nan nan
nan nan nan nan nan nan nan nan nan nan nan nan nan nan nan nan nan nan 24 22 20 21 21 19 18 20 20 19 nan nan nan nan nan nan nan nan nan nan nan nan nan nan nan nan nan nan nan nan nan nan nan nan nan nan nan nan nan nan nan nan nan nan nan nan nan 28 28 28 31 33 34 35 36 36 36 40 45 48 50 nan nan nan nan nan nan
nan nan nan nan nan nan nan nan nan nan nan nan 33 31 29 nan nan nan nan nan nan nan nan nan nan nan nan 23 23 22 nan nan nan nan nan nan nan nan nan nan nan nan nan nan nan nan nan nan nan nan nan nan nan nan nan nan nan nan nan nan nan nan nan nan nan nan nan nan nan nan nan nan nan nan nan nan nan nan nan nan nan nan nan nan nan
nan nan nan nan nan nan nan nan nan nan nan nan nan nan 31 26 nan 24 21 21 nan nan nan nan nan nan nan nan nan nan nan nan nan nan nan nan nan nan nan nan nan nan nan nan nan nan nan nan nan nan nan nan nan nan nan nan nan nan nan nan nan nan nan nan nan nan nan nan nan nan nan nan nan nan nan nan nan nan nan nan nan nan nan nan nan
nan nan nan nan nan nan nan nan nan nan nan nan nan nan 31 28 25 nan nan nan 22 nan nan nan nan nan nan nan nan nan nan nan nan nan nan nan nan nan nan nan nan nan nan nan nan nan nan nan nan nan nan nan nan nan nan nan nan nan nan nan nan nan nan nan nan nan nan nan nan nan nan nan nan nan nan nan nan nan nan nan nan nan nan nan nan
nan 21 nan nan nan nan nan nan nan nan nan nan nan nan nan nan nan 27 nan nan 24 nan nan nan nan nan nan nan nan nan nan nan nan nan nan nan nan nan nan nan nan nan nan nan nan nan nan nan nan nan nan nan nan nan nan nan nan nan nan nan nan nan nan nan nan nan nan nan nan nan nan nan 36 nan nan nan nan nan nan nan nan nan nan nan nan
20 20 22 24 25 nan nan nan nan nan nan nan nan nan nan nan nan nan nan nan 26 nan nan nan nan nan nan nan nan nan nan nan nan nan nan nan nan nan nan nan nan nan nan nan nan nan nan nan nan nan nan nan nan nan nan nan nan nan nan nan nan nan nan nan nan nan nan nan nan nan nan nan nan nan nan nan nan nan nan nan nan nan nan nan nan
18 20 21 22 24 26 28 29 nan nan nan nan nan nan nan nan nan nan nan nan nan nan nan nan nan nan nan nan nan nan nan nan nan nan nan nan nan nan nan nan nan nan nan nan nan nan nan nan nan nan nan nan nan nan nan nan nan nan nan nan nan nan nan nan nan nan nan nan nan nan nan nan nan nan nan nan nan nan nan nan nan nan nan nan nan
16 18 18 18 20 23 26 28 30 31 32 33 34 nan nan 34 33 nan nan nan nan nan nan nan nan nan nan nan nan nan nan nan nan nan nan nan nan nan nan nan nan nan nan nan nan nan nan nan nan nan nan nan nan nan nan nan nan nan nan nan nan nan nan nan nan nan nan nan nan nan nan nan nan nan nan nan nan nan nan nan nan nan nan nan nan
Wind_Direction
305 316 303 317 306 305 314 335 333 325 317 316 326 336 333 337 344 0 14 12 21 21 21 18 21 40 74 71 79 85 85 80 79 90 89 99 93 93 98 102 111 112 120 130 135 131 135 135 142 136 136 122 110 98 99 106 108 88 108 122 114 122 121 137 133 108 66 143 nan 144 78 81 63 58 53 60 63 60 54 27 34 27 38 49 48
301 283 303 308 312 312 312 328 339 323 321 314 322 329 333 337 343 355 8 24 40 36 23 21 27 32 38 54 76 83 87 87 87 91 87 90 92 96 102 106 108 116 123 130 124 127 130 136 132 125 127 121 109 92 95 101 107 117 111 131 116 112 108 128 130 140 95 12 123 nan 104 117 86 53 59 74 63 38 354 14 12 nan 22 28 38
279 278 295 304 308 314 315 324 331 321 322 318 316 324 333 341 348 352 2 22 45 48 45 33 30 33 39 48 54 66 76 77 83 81 84 92 91 100 109 107 115 116 124 119 121 129 129 131 117 117 114 111 103 107 109 107 102 97 103 79 123 117 111 111 136 139 155 135 96 95 93 83 101 111 nan 96 nan 115 nan 12 37 34 4 331 338
298 283 286 305 303 307 308 320 316 321 325 320 319 325 336 348 352 350 1 20 41 48 54 50 28 26 36 45 48 45 57 67 78 84 110 108 90 102 111 106 112 115 116 118 125 128 128 117 115 113 101 105 88 91 88 95 93 92 96 117 109 134 142 133 137 160 164 168 131 56 58 nan 90 113 112 121 122 19 nan nan 51 nan 248 271 346
253 265 290 303 297 299 313 305 306 315 332 330 326 328 332 343 353 353 3 15 44 45 49 50 52 42 37 38 60 43 57 73 88 107 118 98 88 113 87 95 108 114 117 115 123 119 121 125 116 122 118 101 92 88 88 84 83 83 82 93 122 119 141 138 139 156 154 148 109 115 110 172 66 93 119 115 127 135 118 91 72 nan 320 317 340
230 253 271 289 305 288 301 306 305 313 333 345 330 328 321 332 345 359 5 14 26 39 45 45 46 40 37 39 48 44 47 60 61 69 68 72 68 108 85 94 100 115 113 113 123 125 129 127 120 124 117 100 86 75 82 89 87 70 61 83 138 140 131 154 142 138 145 140 145 121 50 117 139 89 162 113 107 76 99 50 31 14 350 346 351
171 213 247 288 301 291 290 300 302 318 329 344 337 323 323 323 336 356 10 9 12 30 42 29 27 44 48 42 47 42 45 65 72 77 59 69 85 82 85 98 103 110 102 121 119 126 129 125 118 113 107 110 108 87 78 74 87 143 155 141 136 152 165 149 136 134 144 147 173 174 200 170 48 309 78 59 78 93 87 58 92 13 349 350 10
192 163 nan 253 289 292 294 295 295 312 315 334 338 319 327 321 322 345 0 3 8 12 19 11 12 39 49 47 41 44 48 55 57 71 67 80 63 72 86 97 105 112 115 115 128 114 124 101 113 105 106 113 107 73 72 84 95 127 165 115 136 141 150 143 143 148 166 131 155 172 171 207 130 203 23 21 26 22 65 106 19 344 342 20 9
214 189 171 248 280 287 281 289 290 305 299 322 336 314 327 323 313 330 341 354 3 352 1 358 2 35 43 37 42 50 53 54 55 61 63 78 55 74 86 97 103 114 129 96 105 115 132 119 104 94 101 107 103 88 83 51 61 136 171 156 138 137 140 150 173 145 158 140 167 150 174 172 213 244 265 222 40 344 8 311 12 37 33 35 10
195 200 184 nan 269 281 278 281 284 281 281 282 294 302 321 324 313 322 333 325 346 341 337 348 3 23 35 39 31 46 51 64 60 53 70 68 42 58 84 86 88 99 106 88 95 94 98 95 88 73 93 99 90 96 100 43 26 309 123 115 128 147 144 158 161 128 133 146 148 127 174 174 218 238 241 321 328 329 326 17 37 23 96 76 64
191 195 199 196 231 272 278 282 278 278 286 269 281 293 304 323 317 321 325 299 331 335 331 342 20 27 24 25 15 35 41 48 75 64 73 85 41 57 67 70 67 64 74 91 83 14 36 56 63 57 71 75 78 95 73 18 27 60 87 122 154 166 159 173 164 154 170 169 141 121 102 84 341 282 24 19 324 303 281 336 23 15 12 69 61
200 196 211 202 nan 258 268 275 276 276 281 273 278 287 290 306 309 318 320 294 316 321 329 337 4 42 21 357 354 17 12 23 45 56 44 59 53 65 71 31 70 60 41 30 45 29 1 36 53 44 51 38 13 75 128 107 191 187 167 133 131 184 201 186 181 156 154 153 153 149 146 84 269 309 5 327 308 321 315 352 20 354 322 3 29
225 224 231 214 208 260 257 266 276 264 268 276 278 284 284 289 301 307 332 283 311 302 319 326 324 12 30 331 346 350 331 346 354 21 78 30 32 88 83 22 36 32 38 360 19 17 335 3 52 84 33 293 343 55 149 216 185 172 180 172 181 215 216 208 174 145 149 184 125 141 167 190 226 293 309 310 281 299 314 324 359 320 350 2 353
230 233 231 226 217 222 260 258 272 268 265 273 268 277 275 282 294 287 326 271 291 283 302 296 301 300 34 267 326 335 300 331 314 316 305 219 219 201 24 347 55 42 7 347 358 359 331 341 348 49 300 316 277 245 189 182 189 188 177 191 172 176 215 231 261 230 192 177 176 164 202 286 261 291 316 291 307 306 318 332 321 293 327 341 298
243 231 230 229 227 220 223 256 273 265 266 268 262 268 265 277 279 272 285 266 288 285 274 287 265 271 258 238 244 297 289 311 305 297 290 268 190 177 192 281 293 106 111 267 323 360 336 333 342 3 302 306 261 243 211 170 198 205 199 200 183 208 206 231 226 227 204 209 221 301 318 229 205 227 276 321 317 332 325 317 314 321 271 274 279
235 230 227 232 230 225 223 230 262 248 259 263 257 258 262 270 270 271 279 271 269 278 269 272 251 248 252 247 233 239 248 266 279 287 291 292 294 208 183 248 281 273 152 171 316 308 307 326 330 341 304 284 278 269 247 221 198 230 221 203 183 198 210 230 219 216 199 191 189 202 217 194 221 218 214 267 319 341 329 317 318 301 289 265 267
235 226 229 234 232 231 232 222 228 244 252 260 255 250 253 258 260 257 261 244 247 261 266 247 241 238 251 245 242 239 237 244 253 274 283 295 294 304 269 259 291 304 358 267 297 285 280 317 322 326 301 294 281 275 279 252 248 244 237 234 227 208 210 220 224 259 245 231 216 203 213 204 163 209 223 230 226 282 315 319 321 309 296 276 275
236 237 235 233 234 231 231 232 231 234 254 237 246 240 233 231 235 248 263 246 235 248 254 253 249 238 236 244 239 245 246 234 227 233 245 260 266 279 261 273 269 271 314 297 285 323 278 287 303 300 307 298 304 300 292 302 269 269 271 252 250 250 227 216 229 252 242 236 223 216 216 224 242 243 245 240 243 245 261 294 307 288 290 297 302
235 241 237 238 238 236 235 234 230 229 227 232 242 246 247 247 241 220 206 225 239 246 235 244 248 237 231 243 234 235 241 242 233 231 237 231 239 258 252 272 287 239 276 270 278 302 305 286 281 284 291 299 304 305 314 320 314 288 274 274 254 270 265 238 233 247 244 233 218 218 225 231 247 265 267 261 254 254 249 262 274 297 302 302 307
236 244 250 253 256 251 246 241 233 235 233 234 233 236 244 239 232 236 249 240 216 201 222 243 254 236 238 233 235 228 223 235 241 232 250 248 219 236 267 251 265 258 232 256 270 279 293 292 282 280 275 290 296 295 303 316 312 313 301 306 272 275 290 307 282 273 262 274 270 252 253 275 289 288 279 277 282 278 277 249 269 314 320 311 305
232 233 238 238 249 252 248 247 240 237 242 236 243 243 241 240 237 235 239 245 258 260 234 211 202 241 241 246 247 242 232 221 222 228 239 247 237 218 244 260 245 256 265 236 259 265 286 291 297 286 280 270 286 297 284 289 298 296 304 298 290 275 286 290 287 278 263 249 252 254 260 276 289 294 302 300 299 310 313 322 288 293 298 298 303
229 218 213 213 224 242 250 251 250 242 239 234 233 238 239 235 247 253 250 241 235 241 243 253 247 215 225 258 258 259 256 245 229 222 228 236 241 236 231 232 241 242 262 280 264 261 273 292 289 294 290 284 276 287 298 289 290 295 296 291 289 274 265 272 275 278 268 265 255 253 255 272 282 290 297 308 322 324 324 297 279 283 294 310 310
229 216 216 213 214 219 234 244 244 244 240 240 235 230 236 239 242 248 245 241 242 242 236 243 247 249 229 232 243 238 238 234 229 229 220 210 208 211 211 218 230 236 243 258 265 283 279 279 280 280 290 294 288 290 287 289 289 293 294 286 281 277 273 273 277 275 273 267 265 268 277 280 281 286 293 300 306 312 291 289 291 303 297 303 315
240 225 222 226 227 229 220 221 229 233 237 237 232 222 214 220 231 236 239 237 241 252 252 237 247 248 241 248 258 257 254 254 253 257 257 246 244 239 244 223 215 210 209 207 244 269 271 285 284 275 283 286 287 286 289 289 290 289 289 287 281 276 273 273 275 278 281 282 286 285 288 290 281 277 275 276 274 275 283 287 296 289 286 288 289
234 225 223 225 228 228 230 229 233 236 237 242 242 232 222 211 213 225 229 232 234 245 245 237 243 244 237 239 260 266 267 266 261 243 242 248 251 245 244 235 234 244 258 242 206 211 261 279 290 296 287 279 275 274 278 283 282 279 284 285 280 274 271 272 273 277 285 293 295 294 288 281 279 278 274 280 279 278 278 280 282 282 282 287 289
236 236 227 230 226 226 227 230 234 235 238 245 249 250 244 231 215 214 231 228 231 235 241 241 240 243 239 237 239 252 260 261 258 259 258 248 247 252 256 255 254 244 225 222 231 238 216 217 245 291 295 288 277 270 272 274 277 277 278 279 281 282 284 284 283 279 282 284 287 284 282 282 281 282 281 283 275 277 280 282 287 285 285 287 288
238 235 239 228 228 225 226 230 233 230 232 233 241 252 249 241 226 221 223 232 235 235 232 235 244 244 237 231 235 244 252 250 246 248 246 244 246 252 256 260 259 261 255 236 238 266 275 255 213 205 252 279 281 279 275 271 267 266 269 270 272 277 280 284 285 272 245 233 228 232 260 276 278 282 281 282 282 283 288 289 290 290 289 286 290
237 234 239 229 225 223 219 218 223 227 226 224 229 239 255 256 247 231 227 232 231 235 231 233 240 236 227 231 241 247 246 244 242 239 236 240 248 255 261 266 267 263 258 254 254 255 257 249 248 234 224 261 273 276 276 271 265 262 261 259 257 255 254 252 252 258 271 275 275 274 263 269 276 274 275 276 277 282 284 287 291 290 288 287 291
239 230 237 244 236 226 218 212 214 219 224 223 223 234 242 255 265 256 246 234 227 230 238 242 242 232 228 235 245 246 241 238 236 234 230 236 242 245 249 255 262 252 246 255 264 269 258 249 245 243 234 229 266 272 262 260 260 258 257 256 253 252 253 257 260 262 264 268 267 258 256 266 271 279 285 279 279 279 280 284 281 281 282 285 286
247 243 237 241 243 237 228 223 219 221 231 234 236 242 241 238 252 264 261 248 235 237 239 242 239 237 239 242 245 246 244 240 233 228 230 238 245 246 244 245 243 244 248 257 258 251 255 251 250 248 241 228 240 261 263 264 259 257 259 260 261 260 260 260 260 262 263 267 269 267 260 267 278 283 282 282 282 280 278 276 280 278 279 280 283
249 248 245 241 240 240 236 231 229 233 239 245 250 253 255 248 248 251 258 255 252 248 245 243 246 237 240 242 245 247 247 245 241 237 239 242 246 246 244 244 244 243 246 252 254 251 254 254 256 256 260 256 241 257 267 265 266 264 260 262 265 266 266 266 268 265 264 262 261 264 266 267 272 278 275 281 287 286 286 285 284 286 282 279 278
242 243 245 245 242 240 238 236 237 241 245 247 249 256 258 259 257 249 249 254 259 265 245 232 238 242 239 239 241 243 247 248 246 243 243 244 245 244 244 243 244 242 242 247 249 244 246 248 252 261 267 276 278 270 272 273 272 273 267 263 266 269 270 270 272 272 270 268 261 259 260 260 255 255 264 275 285 292 293 293 292 288 287 290 287
237 237 240 240 240 241 242 242 240 239 244 248 253 256 258 258 253 248 251 254 260 262 262 251 245 242 237 236 240 242 246 249 249 249 249 247 245 244 244 245 244 241 242 244 241 237 240 242 244 248 254 261 261 258 265 268 271 272 273 269 270 272 272 271 269 270 271 270 267 264 261 261 262 263 269 275 278 281 289 293 293 292 291 292 289
248 240 237 234 240 241 242 241 239 242 245 255 255 257 259 260 258 255 254 255 255 258 258 255 252 251 247 242 242 245 247 251 252 250 249 252 253 249 246 247 246 246 247 248 245 242 243 247 251 248 246 246 254 245 247 247 249 258 265 262 266 272 272 271 270 269 269 269 270 269 268 270 271 263 257 257 264 274 275 276 278 279 279 278 280
250 246 240 235 239 241 239 236 238 241 245 249 250 253 257 258 259 258 254 251 250 252 252 251 250 247 246 246 246 248 248 245 244 245 245 245 247 248 248 247 246 246 246 248 249 247 246 250 253 254 257 261 261 249 247 250 252 256 262 265 264 270 273 273 273 273 271 270 268 267 266 266 265 265 267 260 262 268 271 272 273 275 275 275 276
nan 247 239 236 236 240 238 239 240 240 241 242 244 247 251 254 256 256 251 247 246 248 249 248 246 245 245 246 248 250 247 247 243 242 241 243 245 246 248 249 250 248 247 247 247 249 250 252 257 261 261 259 251 235 235 238 245 254 261 267 269 270 270 271 274 274 273 268 266 265 265 265 266 268 260 256 255 259 263 267 269 270 272 275 276
nan 247 241 236 234 239 238 240 239 239 238 237 238 243 246 246 251 252 251 247 244 242 240 240 241 240 240 242 245 246 248 251 253 247 242 241 243 244 246 249 250 248 248 245 244 245 247 250 254 261 258 253 251 240 238 239 241 242 257 267 270 273 272 270 266 265 266 268 267 266 266 265 265 266 264 261 257 257 263 265 266 266 268 270 272
nan nan 241 238 236 239 243 240 234 232 232 237 236 238 240 241 242 245 245 242 237 231 232 236 240 241 240 239 239 239 240 245 251 249 242 240 241 243 245 247 249 250 250 248 248 249 248 246 248 256 256 256 255 246 243 241 241 240 247 259 261 264 265 264 264 266 268 268 268 268 266 264 266 267 265 262 256 259 262 263 263 263 263 265 268
nan nan nan nan 237 240 237 nan 236 231 232 235 232 229 233 237 235 234 234 235 228 225 229 230 228 233 235 227 223 229 235 239 nan 245 242 240 239 241 247 nan nan nan nan nan nan nan nan nan 250 251 254 257 256 250 246 245 245 243 246 255 256 261 261 258 259 263 266 266 264 264 263 264 266 267 265 263 258 259 265 265 267 267 266 265 266
nan nan nan nan 239 247 241 239 243 237 232 230 231 230 231 236 236 227 227 229 228 230 238 234 220 218 225 224 231 246 250 245 243 nan nan 242 238 237 240 nan nan nan nan nan nan nan 250 nan nan nan 255 256 254 252 250 249 251 249 242 251 257 259 257 257 257 260 265 270 270 269 266 264 265 266 265 263 262 261 265 265 264 266 265 265 263
nan nan nan nan 243 nan nan nan nan 229 223 218 219 223 224 227 228 227 227 228 231 237 239 nan 238 242 245 251 255 259 257 nan nan nan nan nan 243 240 240 nan nan nan nan nan nan nan nan nan nan nan nan nan nan 253 249 247 250 254 249 241 254 255 256 257 259 260 262 266 270 271 272 265 263 264 263 261 261 261 263 265 266 267 267 264 nan
nan nan nan nan nan nan nan nan nan 216 218 213 211 215 216 216 220 223 222 224 229 234 235 235 241 248 254 nan nan nan nan nan nan nan nan nan 251 nan nan 261 262 nan nan nan nan nan nan nan nan nan nan nan nan nan nan nan nan nan nan nan 259 259 255 253 253 256 255 256 260 264 266 262 257 259 260 260 260 260 261 nan nan nan nan nan nan
nan nan nan nan nan nan nan nan nan nan nan nan nan nan 212 212 218 216 216 220 223 228 236 240 244 250 253 nan nan nan nan nan nan nan nan nan nan nan nan nan nan nan nan nan nan nan nan nan nan nan nan nan nan nan nan nan nan nan nan nan nan nan nan nan nan nan 257 259 264 266 266 260 259 258 259 261 263 261 261 261 259 nan nan nan nan
nan nan nan nan nan nan nan nan nan nan nan nan nan nan nan nan nan nan 219 221 224 229 232 236 244 252 253 250 nan nan nan nan nan nan nan nan nan nan nan nan nan nan nan nan nan nan nan nan nan nan nan nan nan nan nan nan nan nan nan nan nan nan nan nan nan 273 272 273 271 271 271 264 258 257 260 260 261 266 262 nan nan nan nan nan nan
nan nan nan nan nan nan nan nan nan nan nan nan 215 212 212 nan nan nan nan nan nan nan nan nan nan nan nan 252 248 246 nan nan nan nan nan nan nan nan nan nan nan nan nan nan nan nan nan nan nan nan nan nan nan nan nan nan nan nan nan nan nan nan nan nan nan nan nan nan nan nan nan nan nan nan nan nan nan nan nan nan nan nan nan nan nan
nan nan nan nan nan nan nan nan nan nan nan nan nan nan 213 213 nan 223 228 232 nan nan nan nan nan nan nan nan nan nan nan nan nan nan nan nan nan nan nan nan nan nan nan nan nan nan nan nan nan nan nan nan nan nan nan nan nan nan nan nan nan nan nan nan nan nan nan nan nan nan nan nan nan nan nan nan nan nan nan nan nan nan nan nan nan
nan nan nan nan nan nan nan nan nan nan nan nan nan nan 217 218 222 nan nan nan 241 nan nan nan nan nan nan nan nan nan nan nan nan nan nan nan nan nan nan nan nan nan nan nan nan nan nan nan nan nan nan nan nan nan nan nan nan nan nan nan nan nan nan nan nan nan nan nan nan nan nan nan nan nan nan nan nan nan nan nan nan nan nan nan nan
nan 261 nan nan nan nan nan nan nan nan nan nan nan nan nan nan nan 227 nan nan 236 nan nan nan nan nan nan nan nan nan nan nan nan nan nan nan nan nan nan nan nan nan nan nan nan nan nan nan nan nan nan nan nan nan nan nan nan nan nan nan nan nan nan nan nan nan nan nan nan nan nan nan 276 nan nan nan nan nan nan nan nan nan nan nan nan
270 267 262 256 249 nan nan nan nan nan nan nan nan nan nan nan nan nan nan nan 237 nan nan nan nan nan nan nan nan nan nan nan nan nan nan nan nan nan nan nan nan nan nan nan nan nan nan nan nan nan nan nan nan nan nan nan nan nan nan nan nan nan nan nan nan nan nan nan nan nan nan nan nan nan nan nan nan nan nan nan nan nan nan nan nan
274 275 273 266 256 251 247 246 nan nan nan nan nan nan nan nan nan nan nan nan nan nan nan nan nan nan nan nan nan nan nan nan nan nan nan nan nan nan nan nan nan nan nan nan nan nan nan nan nan nan nan nan nan nan nan nan nan nan nan nan nan nan nan nan nan nan nan nan nan nan nan nan nan nan nan nan nan nan nan nan nan nan nan nan nan
280 278 278 274 266 257 254 252 250 247 246 248 250 nan nan 245 245 nan nan nan nan nan nan nan nan nan nan nan nan nan nan nan nan nan nan nan nan nan nan nan nan nan nan nan nan nan nan nan nan nan nan nan nan nan nan nan nan nan nan nan nan nan nan nan nan nan nan nan nan nan nan nan nan nan nan nan nan nan nan nan nan nan nan nan nan